Regional Weather Roundup
Issued by NWS

Home | Current Version | Previous Version | Text Only | Print | Product List | Glossary On
Versions: 1 2 3 4 5 6 7 8 9 10 11 12 13 14 15 16 17 18 19 20 21 22 23 24 25 26 27 28 29 30 31 32 33 34 35 36 37 38 39 40 41 42 43 44 45 46 47 48 49 50
000
ASUS44 KMEG 112310
RWRTN
TENNESSEE HOURLY STATE WEATHER ROUNDUP
NATIONAL WEATHER SERVICE MEMPHIS TN
500 PM CST MON DEC 11 2017

TNZ002-004-019-021-049-052-054-088>092-120000-
WEST TENNESSEE

CITY           SKY/WX    TMP DP  RH WIND       PRES   REMARKS
MEMPHIS INTL   PTCLDY    61  33  35 SW13      29.92F
NWS MEMPHIS      N/A     61 N/A N/A MISG        N/A
JACKSON        CLEAR     59  28  30 SW9       29.88F
DYERSBURG      CLEAR     62  30  29 SW12G22   29.85F
SOMERVILLE     CLEAR     61  30  31 SW10G20   29.90S
COVINGTON      CLEAR     59  32  36 SW13      29.89S
UNION CITY     CLEAR     59  28  31 SW10      29.83R
BOLIVAR        CLEAR     61  27  27 S10G17    29.90S
PARIS          CLEAR     59  28  31 SW16      29.82S
HUNTINGDON     CLEAR     61  27  27 SW12      29.84S
LEXINGTON      CLEAR     55  30  38 S9        29.88S
SELMER         CLEAR     59  30  33 VRB7      29.91S
SAVANNAH       CLEAR     57  32  38 S10       29.91S
$$

TNZ008-025-027-028-033-062-065-066-120000-
NORTH MIDDLE TENNESSEE

CITY           SKY/WX    TMP DP  RH WIND       PRES   REMARKS
NASHVILLE      MOCLDY    57  30  35 S14G22    29.85F
PORTLAND       CLEAR     55  32  41 S14G24    29.81R
CLARKSVILLE    PTCLDY    57  27  31 SW10      29.82R
SMYRNA         CLEAR     56  31  38 S9        29.87F
COOKEVILLE     CLEAR     52  30  43 SW14      29.89F
GALLATIN       CLEAR     57  30  35 S8G15     29.86F
CROSSVILLE     CLEAR     49  28  44 VRB6      29.91S
$$

TNZ061-075-076-078-094-096-097-120000-
SOUTH MIDDLE TENNESSEE

CITY           SKY/WX    TMP DP  RH WIND       PRES   REMARKS
FAYETTEVILLE   CLEAR     52  32  46 S9        29.93F
TULLAHOMA      CLEAR     52  30  43 S9        29.91F
WINCHESTER     CLEAR     52  30  43 S3        29.96S
MCMINNVILLE    CLEAR     52  30  43 SW10      29.90F
COLUMBIA       PTCLDY    55  28  35 S16G22    29.88S
SHELBYVILLE    CLEAR     50  32  50 S9        29.91F
$$

TNZ017-018-042-046-047-120000-
NORTHEAST TENNESSEE

CITY           SKY/WX    TMP DP  RH WIND       PRES   REMARKS
TRI CITIES     CLEAR     44  29  55 CALM      29.91F
ELIZABETHTON   CLEAR     37  32  81 CALM      29.91F
$$

TNZ012-013-036-069-073-074-120000-
CENTRAL EAST TENNESSEE

CITY           SKY/WX    TMP DP  RH WIND       PRES   REMARKS
KNOXVILLE      CLEAR     50  33  52 SW15      29.91F
OAK RIDGE      CLEAR     50  31  48 SW3       29.93F
DOWNTOWN KNOXV CLEAR     52  32  46 SW5G14    29.91S
GATLINBURG     CLEAR     52  28  40 NW6       29.91S
MORRISTOWN     CLEAR     50  28  43 W5        29.90F
JACKSBORO      CLEAR     48  30  49 CALM      29.92F
$$

TNZ083-085-099-120000-
SOUTHEAST TENNESSEE

CITY           SKY/WX    TMP DP  RH WIND       PRES   REMARKS
CHATTANOOGA    PTCLDY    54  32  43 S8        29.97S
DAYTON         PTCLDY    52  37  58 S8        29.93F
$$

SKY/WX REPORTED AS FAIR MEANS FEW OR NO CLOUDS BELOW
12 THOUSAND FEET.





USA.gov is the U.S. government's official web portal to all federal, state and local government web resources and services.